Flag for U.S.A. Weather past 2 weeks in Cape Coral, Florida, U.S.A.

Now
79 °F

Sunny.


Feels Like: 81 °F
Forecast: 66 / 80 °F
Wind: No wind

Location: Page Field

Current Time: Dec 27, 2014 at 2:23:48 PM

Latest Report: Dec 27, 2014 at 1:53 PM


Visibility: 10 mi

Pressure: 30.16 "Hg

Humidity: 67%

Dew point: 67 °F

Location of Cape CoralLocation

Historic Weather in Cape Coral — Graph

°F

Cape Coral temperature yesterday

Maximum temperature yesterday: 74 °F (at 2:53 PM)
Minimum temperature yesterday: 56 °F (at 4:53 AM)
Average temperature yesterday: 66 °F

Past Weeks' High & Low Weather Summary

 TemperatureHumidityPressure
High83 °F (Dec 23, 12:53 PM)100% (Dec 23, 12:53 AM)30.25 "Hg (Dec 23, 12:53 AM)
Low46 °F (Dec 15, 5:53 AM)21% (Dec 13, 2:53 PM)29.87 "Hg (Dec 24, 3:53 PM)
Average65 °F74%30.09 "Hg
* Reported Dec 12 12:53 PM — Dec 27 12:53 PM, Cape Coral, Weather by CustomWeather, © 2014

Note: Actual official high and low records may vary slightly from our data, if they occured in-between our weather recording intervals... More about our weather records

Advertising

Cape Coral weather history for previous 24 hours

 ConditionsComfort  
Time TempWeatherWind HumidityBarometerVisibility
12:53 PM
Dec 27
79 °FSunny.No wind67%30.19 "Hg10 mi
11:53 AM77 °FSunny.5 mph77%30.22 "Hg10 mi
11:01 AM73 °FScattered clouds.3 mph88%30.24 "Hg10 mi
9:53 AM70 °FFog.5 mph93%30.25 "Hg5 mi
8:53 AM69 °FLow clouds.6 mph93%30.24 "Hg8 mi
7:53 AM68 °FLow clouds.6 mph93%30.22 "Hg7 mi
6:53 AM68 °FLow clouds.5 mph96%30.19 "Hg8 mi
5:53 AM68 °FLow clouds.6 mph96%30.16 "Hg10 mi
4:53 AM69 °FLow clouds.5 mph90%30.15 "Hg10 mi
3:53 AM68 °FLow clouds.3 mph93%30.16 "Hg10 mi
2:53 AM68 °FLow clouds.6 mph93%30.16 "Hg10 mi
1:53 AM68 °FOvercast.6 mph90%30.17 "Hg10 mi
12:53 AM68 °FLow clouds.6 mph90%30.18 "Hg10 mi
12:02 AM68 °FLow clouds.7 mph90%30.18 "Hg10 mi
11:53 PM
Dec 26
68 °FOvercast.6 mph87%30.19 "Hg10 mi
11:03 PM67 °FPassing clouds.7 mph90%30.19 "Hg10 mi
9:53 PM68 °FPassing clouds.6 mph87%30.20 "Hg10 mi
8:53 PM69 °FOvercast.7 mph84%30.20 "Hg10 mi
7:53 PM69 °FOvercast.7 mph84%30.19 "Hg10 mi
6:53 PM70 °FOvercast.7 mph81%30.18 "Hg10 mi
5:53 PM71 °FOvercast.7 mph81%30.16 "Hg10 mi
4:53 PM72 °FLight rain. Overcast.8 mph76%30.15 "Hg7 mi
3:53 PM73 °FOvercast.9 mph71%30.15 "Hg10 mi
2:53 PM74 °FCloudy.9 mph69%30.14 "Hg10 mi
Weather by CustomWeather, © 2014

See weather overviewHow to use our weather pages